Content
SEND FEEDBACK

Daily
Averages
Monthly
Summary
United States of America

SOUTH LAKE TAHOE, CALIFORNIA


Home > North America > United States > California
Elevation: 6263 feet     Latitude: 38 53N     Longitude: 119 59W

WEATHER
 
SELECT A DAY
Number of Records: 174,516;   Date Range: 1/1/95 - 8/28/14
 
SHARE

PRINT THIS DATA

[ ← Previous Day ]
WEATHER ALMANAC - FEBRUARY 25, 2013
[ Next Day → ]
[ °C ]   °F
Weather ElementAverageHighLow
Temperature32.3 °F46.9 °F (11:53 am)18 °F (2:53 am)
Dewpoint12.9 °F21.9 °F (7:53 pm)1 °F (10:53 am)
Humidity50.9 %75 % (8:53 pm)15 % (11:53 am)
Barometer30.17 in30.26 in (5:53 am)30.10 in (12:53 pm)
Wind Speed5 mph13.8 mph (8:53 am)
Wind Gust25.3 mph (1:53 pm)
Weather ElementAverage
Visibility10 mi
Wind DirectionESE (118.3 °)

Weather ElementTotal
Precipitation---
Heating Degree Days32.6 (Base 65)
Averaged from 23 records on February 25, 2013
WEATHER CONDITIONS BREAKOUT
WIND DIRECTION BREAKOUT
WEATHER BY HOUR - FEBRUARY 25, 2013
[ °C ]   °F
Local TimeTemperatureDewpointHumidityBarometerVisibilityWind DirectionWind SpeedGust SpeedPrecipitationEventsConditions
1:53 AM19.0 °F10.0 °F68 %30.23 in10.0 miSouth (190°)3.5 mphClear
2:53 AM18.0 °F9.0 °F68 %30.23 in10.0 miSouth (190°)3.5 mphClear
3:53 AM18.0 °F10.0 °F71 %30.22 in10.0 miCalmClear
4:53 AM19.9 °F10.0 °F65 %30.23 in10.0 miCalmClear
5:53 AM19.0 °F10.0 °F68 %30.26 in10.0 miSouth (170°)5.8 mphClear
6:53 AM21.9 °F10.9 °F63 %30.22 in10.0 miVariable3.5 mphScattered Clouds
7:53 AM26.1 °F14.0 °F60 %30.22 in10.0 miCalmClear
8:53 AM39.9 °F16.0 °F38 %30.18 in10.0 miSouth (170°)13.8 mphClear
9:53 AM43.0 °F15.1 °F32 %30.15 in10.0 miSSE (150°)10.4 mphClear
10:53 AM46.0 °F1.0 °F16 %30.12 in10.0 miSouth (190°)5.8 mph21.9 mphClear
11:53 AM46.9 °F1.0 °F15 %30.11 in10.0 miSouth (190°)12.7 mph21.9 mphClear
12:53 PM46.9 °F3.9 °F17 %30.10 in10.0 miSW (220°)11.5 mph23.0 mphClear
1:53 PM46.0 °F7.0 °F20 %30.11 in10.0 miVariable6.9 mph25.3 mphClear
2:53 PM45.0 °F10.9 °F25 %30.12 in10.0 miSW (220°)8.1 mph17.3 mphClear
3:53 PM45.0 °F12.9 °F27 %30.12 in10.0 miSSW (200°)10.4 mphClear
4:53 PM41.0 °F19.0 °F41 %30.12 in10.0 miSSW (200°)8.1 mphClear
5:53 PM34.0 °F19.9 °F56 %30.16 in10.0 miCalmClear
6:53 PM30.9 °F19.9 °F64 %30.19 in10.0 miCalmClear
7:53 PM30.0 °F21.9 °F72 %30.18 in10.0 miCalmClear
8:53 PM28.0 °F21.0 °F75 %30.15 in10.0 miCalmClear
9:53 PM28.0 °F19.9 °F72 %30.15 in10.0 miSSW (210°)3.5 mphClear
10:53 PM26.1 °F18.0 °F71 %30.14 in10.0 miSSW (210°)4.6 mphClear
11:53 PM25.0 °F15.1 °F66 %30.14 in10.0 miSSW (210°)3.5 mphClear
Hourly data recorded from KTVL, located miles away from South Lake Tahoe, California







STORIES FROM OUR PARTNERS